[ hide orbit diagram ]
For accurate long-term ephemerides, please instead use our Horizons system.This orbit viewer was implemented using two-body methods, and hence should not be used for determining accurate long-term trajectories (over several years or decades) or planetary encounter circumstances.
Orbital Elements at Epoch 2459200.5 (2020-Dec-17.0) TDB
Reference: JPL 28 (heliocentric ecliptic J2000)
Element | Value | Uncertainty (1-sigma) | Units |
e | .09588467972913486 | 3.3624e-08 | |
a | 2.24089649312527 | 7.1969e-09 | au |
q | 2.026028850575812 | 7.5691e-08 | au |
i | 4.862403058841561 | 3.2544e-06 | deg |
node | 107.7861369069227 | 4.09e-05 | deg |
peri | 296.9317829127057 | 4.3942e-05 | deg |
M | 191.7094306239959 | 1.6634e-05 | deg |
tp | 2459773.280733556843 (2022-Jul-12.78073356) | 5.7369e-05 | TDB |
period | 1225.268087481228 3.35 | 5.9027e-06 1.616e-08 | d yr |
n | .2938132508943806 | 1.4154e-09 | deg/d |
Q | 2.455764135674728 | 7.887e-09 | au |
|
| | Orbit Determination Parameters
Additional Information
|
[ show covariance matrix ]
Physical Parameter Table
Parameter |
Symbol |
Value |
Units |
Sigma |
Reference |
Notes |
absolute magnitude |
H |
15.34 |
|
n/a |
E2021B10 |
|
diameter |
diameter |
4.010 |
km |
0.160 |
urn:nasa:pds:neowise_diameters_albedos::2.0[mainbelt] (http://adsabs.harvard.edu/abs/2011ApJ...741...68M) |
|
rotation period |
rot_per |
28.4676 |
h |
n/a |
LCDB (Rev. 2020-October); Warner et al., 2009 |
Result based on less than full coverage, so that the period may be wrong by 30 percent or so. Published Reference List: [Pal, A.; Szakats, R.; Kiss, C.; Bodi, A.; et al. (2019) Ap. J. Supl. Ser. 247, id.26.] |
geometric albedo |
albedo |
0.120 |
|
0.019 |
urn:nasa:pds:neowise_diameters_albedos::2.0[mainbelt] (http://adsabs.harvard.edu/abs/2011ApJ...741...68M) |
|
|
27052 Katebush | Discovered 1998 Sept. 21 by ODAS at Caussols. |
Kate Bush (b. 1958) is a singer/song-writer/performance artist who has a haunting voice and presence when she performs. Her style has been described as "out of this world" and "almost alien". Her song "Hello Earth" is a beautiful ballad about our Earth as seen from space. |
NOTE: some special characters may not display properly (any characters within {} are an attempt to place the proper accent above a character) |
Reference: MPC batch dated 2014-01-16 | Last Updated: 2014-01-21 |
|
[ hide close-approach data ]
Close-Approach Data ...sorted by Date/Time (TDB)
|
Date/Time (TDB) |
Time Uncertainty (days_HH:MM) |
Body |
Nominal Distance (au) |
Minimum Distance (au) |
Maximum Distance (au) |
V-relative (km/s) |
V-infinity (km/s) |
JD (TDB) |
Time Uncertainty (minutes) |
Semi-major axis (km) |
Semi-minor axis (km) |
range-LOV angle (deg) |
N-sigma |
BP |
Orbit Ref. |
Reference |
Modified |
1918-Apr-09 06:23 |
< 00:01 |
Juno |
0.0466398568135064 |
0.0466341924746444 |
0.0466455240507901 |
5.00995058591026 |
5.00995053384413 |
2421692.766275342 |
0.390571481453411 |
646.286575822218 |
23.148831787155 |
64.1734676824635 |
271169.436689999 |
T |
28 |
CATAB v2.0f-lin.ifort 2020-Nov-13 01:25:33 |
2020-Nov-13 01:25 |
|
|